[[{"header":{"parameterUnit":"m.s-1","parameterCategory":2,"la1":30.2992,"la2":30.254,"lo1":-89.0895,"lo2":-89.0443,"dy":0.0025,"dx":0.0025,"nx":19,"ny":19,"refTime":"2026-04-08T03:00:00:Z","depth":"0","parameterNumber":2,"parameterNumberName":"U-component_of_CURRENTS"},"data":[0,0,0,0.0853,0.0852,0.0799,0.0799,0.0783,0.0783,0,0,0,0,0,0,0,0,0,0,0,0.087,0.087,0.0853,0.0852,0.0799,0.0799,0.0783,0.0783,0,0,0,0,0,0,0,0,0,0,0,0.0871,0.087,0.087,0.0852,0.0799,0.0799,0.0783,0.0809,0,0,0,0,0,0,0,0,0,0,0.0854,0.0867,0.087,0.087,0.0851,0.0799,0.0799,0.081,0.0808,0.0822,0,0.0812,0,0.08,0.0783,0.0783,0,0,0,0.0849,0.0869,0.0852,0.087,0.0851,0.0799,0.0822,0.0808,0.0806,0.0819,0.0812,0.0811,0.08,0.0783,0.0783,0.0831,0.0832,0,0,0.0852,0.0865,0.0853,0.085,0.0836,0.0824,0.0821,0.0806,0.0806,0.0812,0.081,0.0799,0.0783,0.0783,0.0831,0.0831,0,0,0,0.0862,0.0867,0.0849,0.0851,0.0839,0.0822,0.0819,0.0807,0.08,0.081,0.0799,0.0783,0.0783,0.083,0.0831,0.0851,0,0,0,0.0864,0.0873,0.085,0.0858,0.0839,0.0816,0.082,0.0801,0.0798,0.0799,0.0783,0.0783,0.083,0.0831,0.085,0.0838,0,0,0,0.0873,0.0874,0.0867,0.0859,0.0836,0.0816,0.0808,0.0799,0.0792,0.0783,0.0783,0.0829,0.083,0.0848,0.0836,0.0862,0,0,0,0.089,0.0865,0.0867,0.0844,0.0837,0.0819,0.0807,0.0796,0.0789,0.0783,0.083,0.0831,0.0848,0.0835,0.0861,0.0614,0.0601,0,0,0.0864,0.0863,0.085,0.085,0.0824,0.0826,0.0828,0.0815,0.0816,0.0836,0.0837,0.085,0.0836,0.0862,0.0683,0.0666,0,0,0,0.0846,0.0832,0.0827,0.0814,0.0811,0.082,0.0818,0.0835,0.0856,0.0817,0.0869,0.0859,0.0874,0.0724,0.0712,0.0288,0.0836,0.0836,0.0836,0.0794,0.0801,0.0782,0.079,0.0796,0.0823,0.0843,0.0872,0.0874,0.0901,0.089,0.094,0.078,0.0768,0.0336,0.0918,0.0918,0.0918,0.0918,0.0732,0.0707,0.0749,0.0731,0.077,0.0786,0.0862,0.0887,0.0942,0.0933,0.0948,0.077,0.0755,0.0299,0.0919,0.0919,0.0919,0.0919,0.0919,0.0663,0.0656,0.0665,0.0667,0.0697,0.0756,0.079,0.0875,0.0941,0.0966,0.0806,0.0802,0.0387,0.0981,0.0981,0.0981,0.0981,0.0981,0.0981,0.0575,0.0591,0.0575,0.0598,0.0604,0.064,0.0749,0.0782,0.0796,0.0795,0.0793,0.0322,0.0959,0.094,0.0982,0.0982,0.0982,0.0982,0.0982,0.0473,0.0497,0.0466,0.0465,0.0478,0.0403,0.0531,0.0489,0.0576,0.052,0.0054,0.0706,0.0672,0.0678,0.0653,0.0618,0.0618,0.0618,0.0618,0.041,0.0418,0.0379,0.0358,0.0338,0.0299,0.0039,-0.0082,-0.024,-0.0429,-0.0332,-0.0478,-0.0444,-0.055,-0.0516,-0.0567,-0.091,-0.0913,-0.0915,0.036,0.0356,0.031,0.0298,0.0273,0.012,-0.03,-0.087,-0.111,-0.1011,-0.0874,-0.0809,-0.1049,-0.0962,-0.114,-0.1059,-0.1144,0,0]},{"header":{"parameterUnit":"m.s-1","parameterCategory":2,"la1":30.2992,"la2":30.254,"lo1":-89.0895,"lo2":-89.0443,"dy":0.0025,"dx":0.0025,"nx":19,"ny":19,"refTime":"2026-04-08T03:00:00:Z","depth":"0","parameterNumber":3,"parameterNumberName":"V-component_of_CURRENTS"},"data":[0,0,0,-0.0385,-0.0385,-0.0405,-0.0405,-0.0431,-0.0431,0,0,0,0,0,0,0,0,0,0,0,-0.0377,-0.0377,-0.0385,-0.0386,-0.0405,-0.0405,-0.0431,-0.0431,0,0,0,0,0,0,0,0,0,0,0,-0.0377,-0.0377,-0.0377,-0.0386,-0.0405,-0.0405,-0.0431,-0.0417,0,0,0,0,0,0,0,0,0,0,-0.0398,-0.0385,-0.0377,-0.0377,-0.0386,-0.0405,-0.0405,-0.0416,-0.0418,-0.0421,0,-0.042,0,-0.0424,-0.0432,-0.0432,0,0,0,-0.039,-0.0384,-0.0393,-0.0377,-0.0386,-0.0405,-0.0398,-0.0417,-0.0419,-0.0423,-0.042,-0.0421,-0.0425,-0.0432,-0.0433,-0.0401,-0.04,0,0,-0.0389,-0.0379,-0.0391,-0.0393,-0.0386,-0.0397,-0.0398,-0.0418,-0.0416,-0.042,-0.0422,-0.0425,-0.0433,-0.0433,-0.0401,-0.0401,0,0,0,-0.0383,-0.0378,-0.0387,-0.0392,-0.0395,-0.0397,-0.0399,-0.0415,-0.0418,-0.0422,-0.0425,-0.0433,-0.0433,-0.0402,-0.0401,-0.0332,0,0,0,-0.0382,-0.0374,-0.0386,-0.038,-0.0394,-0.0404,-0.0395,-0.0417,-0.0419,-0.0425,-0.0433,-0.0433,-0.0402,-0.0401,-0.0335,-0.0296,0,0,0,-0.0377,-0.0374,-0.0375,-0.0379,-0.0386,-0.0404,-0.0409,-0.0418,-0.0421,-0.0432,-0.0433,-0.0403,-0.0401,-0.0337,-0.0301,-0.0255,0,0,0,-0.0368,-0.0353,-0.0375,-0.0355,-0.0386,-0.0368,-0.0408,-0.0404,-0.0408,-0.0433,-0.0402,-0.0401,-0.0338,-0.0304,-0.0259,-0.0199,-0.018,0,0,-0.0342,-0.0349,-0.0336,-0.0356,-0.0324,-0.0366,-0.0327,-0.0357,-0.0391,-0.0398,-0.0397,-0.0334,-0.0301,-0.0256,-0.0132,-0.0114,0,0,0,-0.0323,-0.0313,-0.0307,-0.0295,-0.0295,-0.0277,-0.0309,-0.032,-0.0328,-0.0388,-0.0329,-0.0311,-0.0284,-0.0256,-0.0241,-0.0208,-0.0396,-0.0396,-0.0396,-0.0268,-0.0269,-0.024,-0.0236,-0.0219,-0.0216,-0.0204,-0.0224,-0.0273,-0.0264,-0.0251,-0.0164,-0.0132,-0.0121,-0.0087,-0.0253,-0.0252,-0.0252,-0.0252,-0.0218,-0.0201,-0.019,-0.0166,-0.0145,-0.0117,-0.0107,-0.0129,-0.0118,-0.0178,-0.0156,-0.018,-0.0101,-0.0071,-0.0248,-0.0248,-0.0249,-0.0249,-0.025,-0.0178,-0.0173,-0.0162,-0.0126,-0.0078,-0.0061,-0.0001,-0.0011,-0.0047,-0.0024,-0.0011,-0.0012,0.0011,-0.0022,-0.0022,-0.0022,-0.0021,-0.0021,-0.0021,-0.0149,-0.0139,-0.012,-0.0085,-0.0059,-0.0004,0.0057,0.0089,0.0113,0.0081,0.008,0.0058,-0.0094,-0.0107,-0.0015,-0.0016,-0.0017,-0.0017,-0.0018,-0.0114,-0.0119,-0.0097,-0.0075,-0.0016,0.0008,0.0102,0.0202,0.0249,0.0269,0.0248,0.0135,0.012,0.0108,0.01,0.024,0.024,0.024,0.024,-0.0098,-0.0096,-0.009,-0.0065,-0.001,0.0014,0.0058,0.0172,0.032,0.0375,0.0373,0.0337,0.0325,0.0318,0.0301,0.0295,0.0482,0.0482,0.0482,-0.0082,-0.0089,-0.009,-0.0079,-0.0023,-0.001,-0.006,0.0001,0.0328,0.0492,0.0413,0.0402,0.0344,0.0322,0.0299,0.0273,0.0258,0,0]}],[{"header":{"parameterUnit":"m.s-1","parameterCategory":2,"la1":30.2992,"la2":30.254,"lo1":-89.0895,"lo2":-89.0443,"dy":0.0025,"dx":0.0025,"nx":19,"ny":19,"refTime":"2026-04-08T03:00:00:Z","depth":"2","parameterNumber":2,"parameterNumberName":"U-component_of_CURRENTS"},"data":[0,0,0,0.0903,0.0902,0.085,0.085,0.0837,0.0837,0,0,0,0,0,0,0,0,0,0,0,0.092,0.092,0.0903,0.0902,0.085,0.085,0.0837,0.0837,0,0,0,0,0,0,0,0,0,0,0,0.092,0.092,0.092,0.0902,0.085,0.085,0.0837,0.0862,0,0,0,0,0,0,0,0,0,0,0.0906,0.0918,0.092,0.092,0.0901,0.085,0.085,0.0863,0.0861,0.0877,0,0.0867,0,0.0854,0.0838,0.0838,0,0,0,0.09,0.092,0.0903,0.0919,0.0901,0.085,0.0873,0.0861,0.0859,0.0874,0.0866,0.0866,0.0854,0.0838,0.0838,0.0889,0.0889,0,0,0.0903,0.0915,0.0905,0.0902,0.0886,0.0875,0.0871,0.0859,0.086,0.0866,0.0865,0.0854,0.0838,0.0838,0.0888,0.0889,0,0,0,0.0912,0.0917,0.0899,0.0903,0.089,0.0873,0.0869,0.086,0.0853,0.0865,0.0854,0.0838,0.0838,0.0888,0.0888,0.0908,0,0,0,0.0914,0.0923,0.0901,0.0908,0.089,0.0868,0.0871,0.0854,0.0852,0.0854,0.0838,0.0838,0.0887,0.0888,0.0906,0.0894,0,0,0,0.0923,0.0924,0.0916,0.0909,0.0887,0.0868,0.086,0.0853,0.0846,0.0838,0.0838,0.0887,0.0888,0.0904,0.0892,0.0918,0,0,0,0.0939,0.0915,0.0917,0.0895,0.0887,0.087,0.0859,0.0849,0.0843,0.0838,0.0887,0.0888,0.0904,0.0891,0.0917,0.0705,0.0693,0,0,0.0915,0.0913,0.0901,0.09,0.0876,0.0877,0.0881,0.0869,0.087,0.0893,0.0894,0.0906,0.0892,0.0918,0.0772,0.0758,0,0,0,0.0897,0.0883,0.0879,0.0866,0.0864,0.0873,0.0872,0.089,0.0911,0.0872,0.0925,0.0915,0.0931,0.0801,0.0791,0.0894,0.0894,0.0894,0.0893,0.0845,0.0853,0.0835,0.0844,0.085,0.0877,0.0898,0.0927,0.093,0.0956,0.0946,0.0995,0.0857,0.0847,0.0973,0.0973,0.0973,0.0973,0.0973,0.0785,0.076,0.0802,0.0785,0.0824,0.0841,0.0918,0.0942,0.0997,0.0988,0.1003,0.0845,0.0836,0.0975,0.0975,0.0975,0.0974,0.0974,0.0974,0.0715,0.0708,0.0718,0.0721,0.0751,0.0811,0.0845,0.093,0.0995,0.102,0.0883,0.0879,0.099,0.1034,0.1034,0.1034,0.1034,0.1034,0.1034,0.0627,0.0644,0.0628,0.0651,0.0657,0.0694,0.0803,0.0836,0.0864,0.0874,0.0873,0.1015,0.1013,0.0994,0.1036,0.1035,0.1035,0.1035,0.1035,0.0525,0.0549,0.0518,0.0517,0.0532,0.0505,0.0598,0.0569,0.065,0.0604,0.0795,0.08,0.077,0.0775,0.0751,0.0727,0.0727,0.0727,0.0727,0.0462,0.047,0.0432,0.0411,0.0393,0.0418,0.0258,0.0284,0.0427,0.0545,0.0554,0.0492,0.0506,0.0461,0.0473,0.0443,0.034,0.0339,0.0339,0.0413,0.0409,0.0362,0.0351,0.0328,0.0288,0.0084,-0.0105,0.0069,0.0336,0.061,0.0677,0.0604,0.062,0.0565,0.0579,0.0536,0,0]},{"header":{"parameterUnit":"m.s-1","parameterCategory":2,"la1":30.2992,"la2":30.254,"lo1":-89.0895,"lo2":-89.0443,"dy":0.0025,"dx":0.0025,"nx":19,"ny":19,"refTime":"2026-04-08T03:00:00:Z","depth":"2","parameterNumber":3,"parameterNumberName":"V-component_of_CURRENTS"},"data":[0,0,0,-0.0382,-0.0382,-0.0401,-0.0401,-0.0426,-0.0426,0,0,0,0,0,0,0,0,0,0,0,-0.0374,-0.0374,-0.0382,-0.0382,-0.0401,-0.0401,-0.0426,-0.0426,0,0,0,0,0,0,0,0,0,0,0,-0.0374,-0.0374,-0.0374,-0.0382,-0.0401,-0.0401,-0.0426,-0.0413,0,0,0,0,0,0,0,0,0,0,-0.0394,-0.0381,-0.0374,-0.0374,-0.0382,-0.0401,-0.0401,-0.0412,-0.0413,-0.0416,0,-0.0415,0,-0.042,-0.0427,-0.0428,0,0,0,-0.0387,-0.038,-0.0389,-0.0374,-0.0382,-0.0401,-0.0394,-0.0413,-0.0414,-0.0418,-0.0415,-0.0416,-0.042,-0.0428,-0.0428,-0.0395,-0.0395,0,0,-0.0385,-0.0375,-0.0387,-0.0389,-0.0382,-0.0393,-0.0394,-0.0414,-0.0411,-0.0415,-0.0417,-0.042,-0.0428,-0.0428,-0.0396,-0.0395,0,0,0,-0.0379,-0.0374,-0.0383,-0.0388,-0.0391,-0.0394,-0.0395,-0.041,-0.0414,-0.0417,-0.0421,-0.0428,-0.0428,-0.0396,-0.0396,-0.0327,0,0,0,-0.0379,-0.0371,-0.0382,-0.0376,-0.039,-0.04,-0.0391,-0.0413,-0.0415,-0.0421,-0.0428,-0.0428,-0.0397,-0.0396,-0.033,-0.0291,0,0,0,-0.0374,-0.037,-0.0372,-0.0376,-0.0383,-0.04,-0.0404,-0.0413,-0.0417,-0.0428,-0.0428,-0.0397,-0.0396,-0.0333,-0.0296,-0.0251,0,0,0,-0.0364,-0.035,-0.0371,-0.0351,-0.0382,-0.0365,-0.0404,-0.0399,-0.0403,-0.0428,-0.0397,-0.0396,-0.0333,-0.0299,-0.0254,-0.0199,-0.018,0,0,-0.0338,-0.0346,-0.0333,-0.0353,-0.0321,-0.0363,-0.0323,-0.0352,-0.0387,-0.0393,-0.0392,-0.0329,-0.0297,-0.0251,-0.0132,-0.0114,0,0,0,-0.032,-0.031,-0.0304,-0.0292,-0.0291,-0.0273,-0.0305,-0.0316,-0.0323,-0.0384,-0.0324,-0.0306,-0.028,-0.0253,-0.0239,-0.039,-0.039,-0.039,-0.0391,-0.0265,-0.0266,-0.0237,-0.0233,-0.0216,-0.0213,-0.0201,-0.022,-0.0269,-0.026,-0.0247,-0.016,-0.0131,-0.012,-0.0249,-0.0248,-0.0248,-0.0248,-0.0248,-0.0216,-0.0199,-0.0188,-0.0163,-0.0143,-0.0114,-0.0104,-0.0126,-0.0114,-0.0174,-0.0152,-0.0178,-0.01,-0.0242,-0.0243,-0.0244,-0.0245,-0.0245,-0.0245,-0.0177,-0.0171,-0.016,-0.0124,-0.0076,-0.0059,0.0001,-0.0009,-0.0043,-0.0021,-0.001,-0.0011,-0.0116,-0.0019,-0.0019,-0.0018,-0.0018,-0.0018,-0.0017,-0.0149,-0.0139,-0.0119,-0.0084,-0.0059,-0.0003,0.0058,0.0091,0.0113,0.008,0.008,-0.0083,-0.009,-0.0103,-0.0011,-0.0012,-0.0013,-0.0014,-0.0014,-0.0114,-0.0119,-0.0097,-0.0075,-0.0016,0.0009,0.0103,0.0201,0.0248,0.0267,0.0139,0.0133,0.0117,0.0106,0.0098,0.0236,0.0236,0.0236,0.0236,-0.0099,-0.0096,-0.009,-0.0065,-0.001,0.0015,0.0053,0.014,0.0235,0.0248,0.0247,0.0198,0.0189,0.0172,0.0158,0.0149,0.0301,0.0301,0.03,-0.0083,-0.009,-0.0091,-0.008,-0.0023,-0.0009,-0.0071,-0.01,0.0087,0.0297,0.0192,0.0253,0.0176,0.0163,0.0129,0.0111,0.0092,0,0]}],[{"header":{"parameterUnit":"m.s-1","parameterCategory":2,"la1":30.2992,"la2":30.254,"lo1":-89.0895,"lo2":-89.0443,"dy":0.0025,"dx":0.0025,"nx":19,"ny":19,"refTime":"2026-04-08T03:00:00:Z","depth":"4","parameterNumber":2,"parameterNumberName":"U-component_of_CURRENTS"},"data":[0,0,0,0.1143,0.1145,0.123,0.1231,0.1295,0.1296,0,0,0,0,0,0,0,0,0,0,0,0.1117,0.1118,0.1143,0.1145,0.123,0.1231,0.1295,0.1296,0,0,0,0,0,0,0,0,0,0,0,0.1117,0.1118,0.1119,0.1145,0.123,0.1231,0.1295,0.1242,0,0,0,0,0,0,0,0,0,0,0.1164,0.1151,0.1118,0.1119,0.1146,0.123,0.1231,0.124,0.1245,0.1244,0,0.1265,0,0.128,0.1299,0.1299,0,0,0,0.1145,0.1147,0.1166,0.1119,0.1147,0.123,0.1192,0.1243,0.1249,0.1251,0.1266,0.1268,0.1281,0.1299,0.13,0.135,0.135,0,0,0.114,0.1135,0.1162,0.117,0.1178,0.1189,0.1194,0.1247,0.1259,0.1266,0.127,0.1282,0.13,0.13,0.135,0.135,0,0,0,0.1127,0.1132,0.1151,0.1167,0.1185,0.1192,0.1198,0.1257,0.1262,0.1271,0.1282,0.13,0.1301,0.135,0.135,0.1346,0,0,0,0.1124,0.1124,0.1148,0.1147,0.1184,0.1229,0.1206,0.1259,0.1265,0.1282,0.13,0.1301,0.135,0.135,0.1346,0.1329,0,0,0,0.1112,0.1123,0.1135,0.1146,0.1182,0.1228,0.1238,0.1261,0.1272,0.1299,0.1301,0.135,0.135,0.1346,0.1329,0.1328,0,0,0,0.11,0.1112,0.1135,0.1152,0.1182,0.1215,0.1238,0.1273,0.1297,0.13,0.135,0.135,0.1345,0.1329,0.1328,0.1144,0,0,0,0.11,0.1112,0.1119,0.1141,0.1161,0.1203,0.1232,0.1277,0.1302,0.1329,0.133,0.1346,0.1329,0.1328,0.1171,0,0,0,0,0.1108,0.1114,0.1125,0.1148,0.1178,0.121,0.1259,0.1284,0.133,0.132,0.1356,0.1345,0.1345,0.1238,0.1352,0.1352,0.1352,0.1352,0.1352,0.1088,0.1104,0.1114,0.1139,0.1166,0.1222,0.1252,0.1297,0.1325,0.135,0.135,0.1355,0.1244,0.1368,0.1368,0.1368,0.1368,0.1368,0.1368,0.1067,0.1063,0.1099,0.1115,0.1155,0.1189,0.1251,0.1287,0.1334,0.1355,0.1355,0.1251,0.1368,0.1368,0.1368,0.1368,0.1368,0.1368,0.1368,0.103,0.103,0.1056,0.1082,0.1116,0.1169,0.1186,0.1258,0.1319,0.1332,0.1225,0.1349,0.134,0.1342,0.1341,0.1341,0.1341,0.1341,0.1341,0.0974,0.0999,0.1008,0.1043,0.1057,0.1083,0.1155,0.1171,0.1247,0.119,0.1333,0.1346,0.1347,0.1339,0.134,0.134,0.1341,0.1341,0.1341,0.0915,0.0941,0.0943,0.0956,0.097,0.0971,0.1047,0.1034,0.1043,0.1023,0.1113,0.1125,0.1106,0.1112,0.1095,0.1025,0.1022,0.102,0,0.0873,0.0886,0.0888,0.0881,0.0854,0.0896,0.0827,0.0857,0.0931,0.0905,0.1083,0.1189,0.1195,0.1178,0.118,0.1161,0,0,0,0.0839,0.0848,0.0832,0.0837,0.0799,0.0762,0.0802,0.0774,0.0912,0.0848,0.096,0.0975,0.1182,0.1337,0.1335,0.1336,0.1322,0,0]},{"header":{"parameterUnit":"m.s-1","parameterCategory":2,"la1":30.2992,"la2":30.254,"lo1":-89.0895,"lo2":-89.0443,"dy":0.0025,"dx":0.0025,"nx":19,"ny":19,"refTime":"2026-04-08T03:00:00:Z","depth":"4","parameterNumber":3,"parameterNumberName":"V-component_of_CURRENTS"},"data":[0,0,0,0.0066,0.0065,0.0063,0.0063,0.0069,0.0069,0,0,0,0,0,0,0,0,0,0,0,0.0066,0.0066,0.0066,0.0065,0.0063,0.0063,0.0069,0.0069,0,0,0,0,0,0,0,0,0,0,0,0.0066,0.0066,0.0066,0.0065,0.0063,0.0063,0.0069,0.0069,0,0,0,0,0,0,0,0,0,0,0.007,0.0068,0.0066,0.0066,0.0065,0.0063,0.0063,0.0069,0.0069,0.0072,0,0.007,0,0.0069,0.007,0.007,0,0,0,0.0067,0.0068,0.0068,0.0066,0.0065,0.0063,0.0065,0.0069,0.0069,0.0072,0.007,0.007,0.0069,0.007,0.007,0.0082,0.0082,0,0,0.0067,0.0066,0.0068,0.0068,0.0063,0.0065,0.0065,0.0069,0.0068,0.007,0.007,0.0069,0.007,0.007,0.0082,0.0082,0,0,0,0.0066,0.0066,0.0066,0.0068,0.0066,0.0065,0.0065,0.0068,0.0068,0.007,0.0069,0.007,0.007,0.0082,0.0082,0.0076,0,0,0,0.0067,0.0066,0.0066,0.0065,0.0066,0.0066,0.0063,0.0067,0.0068,0.0069,0.007,0.007,0.0082,0.0082,0.0076,0.0087,0,0,0,0.0067,0.0066,0.0065,0.0065,0.0063,0.0066,0.0066,0.0067,0.0067,0.007,0.007,0.0082,0.0082,0.0076,0.0086,0.0114,0,0,0,0.0066,0.0047,0.0065,0.0047,0.0063,0.006,0.0066,0.0065,0.0066,0.007,0.0082,0.0082,0.0076,0.0086,0.0113,0.0109,0,0,0,0.0037,0.0043,0.0033,0.0049,0.0041,0.006,0.0061,0.0066,0.0072,0.0081,0.0081,0.0076,0.0086,0.0114,0.0121,0,0,0,0,0.0022,0.0017,0.0017,0.002,0.0028,0.0052,0.0057,0.0066,0.0076,0.0073,0.0082,0.0089,0.0106,0.0102,0.0083,0.0083,0.0083,0.0083,0.0083,-0.0018,-0.0008,-0.0013,0.0005,0.0014,0.0044,0.0061,0.0079,0.0074,0.0081,0.0088,0.0112,0.0105,0.0086,0.0086,0.0086,0.0086,0.0086,0.0086,-0.0046,-0.0043,-0.0018,-0.002,0.0017,0.0029,0.007,0.0079,0.0105,0.0093,0.011,0.01,0.0085,0.0085,0.0085,0.0086,0.0086,0.0086,0.0086,-0.0058,-0.0054,-0.0051,-0.0032,-0.0002,0.0034,0.0086,0.0106,0.0112,0.0124,0.0136,0.0122,0.012,0.0134,0.0134,0.0134,0.0135,0.0135,0.0135,-0.007,-0.0065,-0.0059,-0.0037,-0.0017,0.0031,0.0101,0.0138,0.0156,0.0145,0.0131,0.0129,0.0127,0.0124,0.0137,0.0137,0.0136,0.0136,0.0136,-0.0079,-0.0077,-0.0071,-0.0057,-0.0008,0.0032,0.0104,0.0179,0.0212,0.022,0.0163,0.0161,0.0171,0.0169,0.0167,0.0194,0.0194,0.0194,0,-0.0083,-0.0082,-0.0078,-0.0058,-0.0016,0.0034,0.0108,0.0164,0.0182,0.0154,0.0187,0.0117,0.0116,0.0122,0.0121,0.0116,0,0,0,-0.0079,-0.0083,-0.0082,-0.0072,-0.0027,0.0057,0.0126,0.0143,0.0167,0.0232,0.0195,0.0195,0.0194,0.0145,0.0156,0.0154,0.015,0,0]}]]